User: anonymous   Login
Location: Ar Ranvel
(48.3000°N, 4.8833°W)
Time: 23:28:45
(UTC+00:00)
Language:

Cosmos 1844 Rocket - Orbit

View from above orbital plane
View from above orbital plane
View from above satellite
View from above satellite

Ground track
Ground track

The orbit data is extracted from the following two-line orbital elements,

1 17974U 87041B   21263.35315247 -.00000217  00000-0 -83562-4 0  9992
2 17974  71.0066 231.0404 0013961 186.8093 283.3213 14.17275041776924
Epoch (UTC): 20 September 2021 08:28:32
Eccentricity: 0.0013961
inclination: 71.0066°
perigee height: 824 km
apogee height: 844 km
right ascension of ascending node: 231.0404°
argument of perigee: 186.8093°
revolutions per day: 14.17275041
mean anomaly at epoch: 283.3213°
orbit number at epoch: 77692

The dashed part of the orbit path shows where the satellite is in the earth's shadow,  

DLR